sat.trackr.live / text

‹ back to catalog

KUIPER-00148

NORAD 65769 · 2025-217H

PAYLOAD ACTIVE UNKNOWN

§ Identity

Operator
Country
US
Launch date
2025-09-25
Launch site
AFETR
Launch vehicle
Mass (kg)
RCS (m²)

External: N2YO · Heavens-Above · Gunter

§ Orbital elements

Epoch: 2026-05-25T02:54:44.043840Z

Period
97.57 min
Inclination
51.9054°
Eccentricity
0.0001040
Mean motion
14.75842796 rev/d
Perigee alt
641.7 km
Apogee alt
643.2 km
Semi-major
7,020.6 km
B*
4.4661e-4
RAAN
43.7712°
Arg perigee
104.8459°
Mean anomaly
255.2616°
Rev number
3,649

§ Raw data

KUIPER-001481 65769U 25217H   26145.12134310  .00002879  00000+0  44661-3 0  99922 65769  51.9054  43.7712 0001040 104.8459 255.2616 14.75842796 36491

JSON: /api/v1/satellites/65769 · /tle

For live sub-satellite position, see the globe view (requires WebGL).

§ Visibility from observer

Set your observer location to see the next 7 days of passes ≥ 10°. The values pass through the URL so the page stays shareable.

No JS? Fill the form by hand. The geolocation button needs JavaScript.